sat.trackr.live / text

‹ back to catalog

SUPERVIEW NEO-2 05

NORAD 68377 · 2026-062A

PAYLOAD ACTIVE UNKNOWN

§ Identity

Operator
Country
PRC
Launch date
2026-03-25
Launch site
TAISC
Launch vehicle
Mass (kg)
RCS (m²)

External: N2YO · Heavens-Above · Gunter

§ Orbital elements

Epoch: 2026-09-19T13:41:00.559104Z

Period
94.75 min
Inclination
97.4392°
Eccentricity
0.0001591
Mean motion
15.19714691 rev/d
Perigee alt
505.6 km
Apogee alt
507.8 km
Semi-major
6,884.8 km
B*
3.3053e-5
RAAN
268.5358°
Arg perigee
88.7505°
Mean anomaly
271.3912°
Rev number
2,698

§ Raw data

SUPERVIEW NEO-2 051 68377U 26062A   26262.57014536  .00000638  00000+0  33053-4 0  99902 68377  97.4392 268.5358 0001591  88.7505 271.3912 15.19714691 26987

JSON: /api/v1/satellites/68377 · /tle

For live sub-satellite position, see the globe view (requires WebGL).

§ Visibility from observer

Set your observer location to see the next 7 days of passes ≥ 10°. The values pass through the URL so the page stays shareable.

No JS? Fill the form by hand. The geolocation button needs JavaScript.